Tracking 18980 objects as of 21-Feb-2018
HD Live streaming from Space Station
objects crossing your sky now

COSMOS 836

Track COSMOS 836 now!
10-day predictions
COSMOS 836 is classified as:


NORAD ID: 8923
Int'l Code: 1976-061A
Perigee: 776.1 km
Apogee: 801.1 km
Inclination: 74.1 °
Period: 100.5 minutes
Semi major axis: 7159 km
RCS: 1.916 m2 (large)
Launch date: June 29, 1976
Source: Commonwealth of Independent States (former USSR) (CIS)
Launch site: PLESETSK MISSILE AND SPACE COMPLEX (PKMTR)
aabbcc
Your satellite tracking list
Your tracking list is empty




NASA's NSSDC Master Catalog

Two Line Element Set (TLE):
1 08923U 76061A   18051.66454005  .00000025  00000-0  18558-4 0  9995
2 08923  74.0537 123.8060 0017471  30.0605 330.1546 14.33090224175120
Source of the keplerian elements: AFSPC